Starlink 3591

operational
NORAD ID: 51870 Int'l Des: 2022-022 Owner: SPXS Country: US Constellation: starlink
LEOCIRCULAR

关于 Starlink 3591

正在加载描述...

实时位置

正在加载3D地球...

即将过境

高度历史

Altitude vs Time

uPlot chart will show altitude changes over time

两行轨道根数

1 51870U 22022U 25305.51715342 .00001278 00000-0 98359-4 0 9998
2 51870 53.2157 224.5092 0001493 99.8073 260.3088 15.08837819203814
Epoch: Nov 1, 2025 • Age: 15 hours

当前状态

高度 539.9 km
速度 7.60 km/s
星下点 23.73°N, 69.74°W
发射日期 Mar 3, 2022
运行时间 3.6 years
类型 internet

技术详情

分类 Payload
质量 297.00 kg
干质量 275.00 kg
总质量 297.00 kg
长度 0.20 m
直径 2.80 m
跨度 9.00 m
形状 Box + pan
制造商 SPXS
平台类型 Starlink
阶段状态 In Orbit
所有者/国家 SPXS/US

大型星座

Loading constellations...